weather.gov     
National Weather Service

Terminal Aerodrome Forecast
NWS Homepage
This page is being discontinued on March 12, 2014.
The same data is available at this site. Please update your bookmarks.
Thank you, and we apologize for the inconvenience.
Please send an email to SR-SRH.Webmaster@noaa.gov with any concerns.


Current Version
Previous Version:    01  02  03  04  05  06  07  08  09  10  11  12  13  14  15  16  17  18  19  20  21  22  23  24  25  26  27  28  29  30  
   31  
[Printable]
361
FTUS43 KSGF 301400 AAA
TAFBBG
TAF AMD
KBBG 301422Z 3014/3112 VRB02KT P6SM VCSH BKN060 OVC150
      TEMPO 3014/3018 4SM SHRA OVC050
     FM301800 19004KT P6SM -SHRA OVC050
     FM302100 VRB04KT P6SM OVC050
     FM310900 VRB02KT 5SM BR OVC025=


U.S. Dept. of Commerce
NOAA National Weather Service
1325 East West Highway
Silver Spring, MD 20910
E-mail: w-nws.webmaster@noaa.gov
Page last modified: May 16, 2007
NATIONAL WEATHER SERVICE: for Safety, for Work, for Fun - FOR LIFE